Home   Weather   Salt Lake City   Past weeks

Flag for USA Past Weather in Salt Lake City, Utah, USA — Yesterday and Last 2 Weeks

Now
56 °F

Clear.


Feels Like: 56 °F
Forecast: 57 / 81 °F
Wind: 3 mph from East

Location: Salt Lake City International Airport

Current Time: Sep 28, 2016 at 6:00:04 AM

Latest Report: Sep 28, 2016 at 4:54 AM


Visibility: 10 mi

Pressure: 30.03 "Hg (25.68 "Hg at 1312m altitude)

Humidity: 72%

Dew Point: 47 °F

Location of Salt Lake CityLocation

Past Weather in Salt Lake City — Graph

°F

Salt Lake City Temperature Yesterday

Maximum temperature yesterday: 76 °F (at 3:54 PM)
Minimum temperature yesterday: 53 °F (at 3:54 AM)
Average temperature yesterday: 64 °F

High & Low Weather Summary for the Past Weeks

 TemperatureHumidityPressure
High91 °F (Sep 19, 3:54 PM)97% (Sep 22, 2:54 AM)30.43 "Hg (Sep 22, 2:54 AM)
Low46 °F (Sep 25, 4:54 AM)9% (Sep 19, 3:54 PM)29.48 "Hg (Sep 22, 2:54 PM)
Average63 °F54%29.99 "Hg
* Reported Sep 13 3:54 AM — Sep 28 3:54 AM, Salt Lake City, Weather by CustomWeather, © 2016

Note: Actual official high and low records may vary slightly from our data, if they occured in-between our weather recording intervals... More about our weather records

Advertising

Salt Lake City Weather History for the Previous 24 Hours

Scroll right to see more
 ConditionsComfort  
Time TempWeatherWind HumidityBarometerVisibility
3:54 AM
Wed, Sep 28
56 °FClear.6 mph75%30.02 "Hg10 mi
2:54 AM56 °FClear.8 mph77%30.02 "Hg10 mi
1:54 AM58 °FClear.7 mph75%30.01 "Hg10 mi
12:54 AM59 °FClear.6 mph75%30.02 "Hg10 mi
11:54 PM
Tue, Sep 27
61 °FClear.No wind70%30.02 "Hg10 mi
10:54 PM62 °FClear.No wind67%30.02 "Hg10 mi
9:54 PM64 °FClear.No wind65%30.03 "Hg10 mi
8:54 PM65 °FClear.No wind63%30.03 "Hg10 mi
7:54 PM68 °FClear.6 mph53%30.03 "Hg10 mi
6:54 PM71 °FSunny.8 mph44%30.01 "Hg10 mi
5:54 PM75 °FPassing clouds.10 mph42%30.00 "Hg10 mi
4:54 PM76 °FPassing clouds.7 mph35%30.00 "Hg10 mi
3:54 PM76 °FPassing clouds.8 mph40%30.02 "Hg10 mi
2:54 PM75 °FPassing clouds.9 mph40%30.03 "Hg10 mi
1:54 PM75 °FPassing clouds.6 mph39%30.05 "Hg10 mi
12:54 PM72 °FPassing clouds.No wind43%30.07 "Hg10 mi
11:54 AM70 °FPassing clouds.No wind46%30.10 "Hg10 mi
10:54 AM68 °FPassing clouds.No wind47%30.12 "Hg10 mi
9:54 AM62 °FPassing clouds.7 mph60%30.13 "Hg10 mi
8:54 AM58 °FSunny.7 mph70%30.14 "Hg10 mi
7:54 AM53 °FSunny.8 mph80%30.14 "Hg10 mi
6:54 AM53 °FClear.8 mph74%30.13 "Hg10 mi
Weather by CustomWeather, © 2016

See weather overviewHow to use our weather pages